SCP
0 0 0 0 0 0 0 0 0 0 0 0 0 0 0 0 0 0 0 0 0 0 0 0 0 0 0 0 0 0 0 0 0 -0 -0 -0 -0 -0 -0 -0 -0 -0 -0 -0
0 0 0 0 0 0 0 0 0 0 0 0 0 0 0 0 0 0 0 0 0 0 0 0 0 0 0 0 0 0 0 -0 0 -0 -0 -0 -0 -0 -0 -0 -0 -0 -0 -0
0 0 0 0 0 0 0 0 0 0 0 0 0 0 0 0 0 0 0 0 0 0 0 0 0 0 0 -0 -0 -0 0 0 0 0 0 0 -0 -0 -0 0 0 0 -0 -0
0 0 0 0 0 0 0 0 0 0 0 0 0 0 0 0 0 0 0 0 0 0 0 0 0 0 -0 -0 -0 0 0 0 0 0 0 0 0 0 0 0 0 0 0 0
0 0 0 0 0 0 0 0 0 0 0 0 0 0 0 0 0 0 0 0 0 0 0 0 0 -0 -0 -0 0 0 0 0 0 0 0 0 0 0 0 0 0 0 0 0
0 0 0 0 0 0 0 0 0 0 0 0 0 0 0 0 0 0 0 0 0 0 0 -0 -0 -0 0 0 0 0 0 0 0 0 0 0 0 0 0 0 0 0 0 0
0 0 0 0 0 0 0 0 0 0 0 0 0 0 0 0 0 0 0 0 0 0 -0 -0 -0 0 0 0 0 0 0 0 0 0 0 0 0 0 0 0 0 0 0 0
0 0 0 0 0 0 0 0 0 0 0 0 0 0 0 0 0 0 0 0 0 -0 -0 -0 0 0 0 0 0 0 0 0 0 0 0 0 0 0 0 0 0 0 0 0
0 0 0 0 0 0 0 0 0 0 0 0 0 0 0 0 0 0 0 0 0 -0 -0 -0 -0 0 0 0 0 0 0 0 0 0 0 0 0 0 0 0 0 0 0 0
0 0 0 0 0 0 0 0 0 0 0 0 0 0 0 0 0 0 0 0 -0 -0 -0 -0 -0 0 0 0 0 0 0 0 0 0 0 0 0 0 0 0 0 0 0 0
0 0 0 0 0 0 0 0 0 0 0 0 0 0 0 0 0 0 0 -0 -0 -0 -0 -0 0 0 0 0 0 0 0 0 0 0 0 0 0 0 0 0 0 0 0 0
0 0 0 0 0 0 0 0 0 0 0 0 0 0 0 0 -0 0 -0 -0 -0 -0 -0 -0 0 0 0 0 0 0 0 0 0 0 0 0 0 0 0 0 0 0 0 0
0 0 0 0 0 0 0 0 0 0 0 0 0 0 0 -0 -0 0 0 -0 -0 -0 -0 -0 0 0 0 0 0 0 0 0 0 0 0 0 0 0 -0 0 0 0 0 0
0 0 0 0 0 0 0 0 0 0 0 -0 0 0 -0 -0 0 0 -0 -0 -0 -0 -0 -0 0 0 0 0 0 0 0 0 0 0 0 0 0 0 0 0 0 0 0 0
0 0 0 0 0 0 0 0 0 0 -0 0 0 -0 -0 0 0 0 0 0 -0 -0 -0 -0 0 0 0 0 0 0 0 0 0 0 0 0 0 0 0 0 0 0 0 0
0 0 0 0 0 0 0 0 0 -0 -0 0 0 -0 0 0 0 0 0 0 -0 -0 -0 -0 -0 0 0 0 0 0 0 0 0 0 0 0 0 0 0 0 0 0 0 0
0 0 0 0 0 0 0 0 0 0 -0 -0 -0 -0 0 0 0 0 -0 0 0 -0 -0 -0 -0 0 0 0 0 0 0 0 0 0 0 0 0 0 0 0 0 0 0 0
0 0 0 0 0 0 0 0 0 0 0 0 -0 0 0 0 0 -0 -0 -0 0 -0 -0 -0 -0 -0 0 0 0 0 0 0 0 0 0 0 0 0 0 0 0 0 0 0
0 0 0 0 0 0 0 0 0 -0 0 0 -0 -0 0 0 0 0 -0 -0 0 -0 -0 -0 -0 -0 0 0 0 0 0 0 0 0 0 0 0 0 0 0 0 0 0 0
0 0 0 0 0 0 0 0 -0 -0 0 0 0 0 0 0 0 0 0 0 0 0 -0 0 0 0 0 0 0 0 0 0 0 0 0 0 0 0 0 0 0 0 0 0
0 0 0 0 0 0 0 0 -0 -0 0 0 0 0 0 0 0 0 0 0 -0 -0 -0 0 0 0 0 0 0 0 0 0 0 0 0 0 0 0 0 0 0 0 0 0
0 0 0 0 0 0 0 0 -0 -0 0 0 0 0 0 0 0 -0 -0 0 0 -0 0 0 0 0 0 0 0 0 0 0 0 0 0 0 0 0 0 0 0 0 0 0
0 0 0 0 0 0 0 -0 -0 -0 0 0 0 0 0 0 0 0 0 0 0 -0 0 0 0 0 0 0 0 0 0 0 0 0 0 0 0 0 0 0 0 0 0 0
0 0 0 0 0 0 0 -0 -0 -0 -0 0 0 0 0 0 0 0 0 0 -0 -0 0 0 0 0 0 0 0 0 0 0 0 0 0 0 0 0 0 0 0 0 0 0
0 0 0 0 0 0 0 -0 -0 -0 -0 -0 -0 0 0 0 0 0 0 0 0 0 0 0 0 0 0 0 0 0 0 0 0 0 0 0 0 0 0 0 0 0 0 0
0 0 0 0 0 0 0 -0 -0 -0 -0 -0 -0 -0 0 0 0 -0 0 0 0 0 0 0 0 0 0 0 0 0 0 0 0 0 0 0 0 0 0 0 0 0 0 0
0 0 0 0 0 0 0 -0 -0 -0 -0 -0 -0 -0 0 -0 0 -0 0 0 0 0 0 0 0 0 0 0 0 0 0 0 0 0 0 0 0 0 0 0 0 0 0 0
Wind_Speed_500mb
0 3 6 5 9 11 3 9 6 24 38 38 34 56 76 87 92 91 92 95 100 103 106 107 103 103 99 100 96 95 94 94 88 82 84 77 74 69 70 66 63 63 60 61
0 6 4 7 9 12 8 8 15 28 37 21 69 71 73 87 90 89 97 108 112 110 107 105 107 105 105 112 107 97 96 93 89 81 78 77 68 64 62 60 58 56 58 56
3 10 7 5 2 6 17 12 17 16 14 57 70 77 80 89 85 84 102 106 106 107 107 107 109 109 111 110 102 98 92 81 69 69 68 68 63 66 66 63 59 52 51 48
2 7 5 6 10 8 18 26 15 10 37 57 66 77 85 73 76 95 99 103 104 106 110 106 122 113 110 97 91 84 79 80 77 69 66 65 65 57 54 46 47 42 38 36
6 3 9 4 8 10 14 37 6 28 66 69 76 78 58 77 99 98 101 101 102 107 102 115 118 114 102 88 85 86 86 78 70 63 61 54 68 55 42 42 52 40 26 27
7 3 6 7 11 36 15 8 11 60 61 70 81 29 51 108 104 101 102 99 105 107 105 113 117 109 94 86 90 86 81 74 70 62 51 54 43 48 47 69 78 104 98 90
2 6 12 8 22 23 11 14 68 64 67 69 44 57 88 96 101 102 99 101 104 101 109 109 111 104 86 83 83 80 76 69 61 56 47 42 39 51 68 81 96 106 106 92
5 5 7 11 7 6 17 54 53 61 72 70 77 84 86 94 99 100 99 104 103 101 114 107 104 95 89 84 84 80 64 58 55 54 51 44 53 68 74 83 97 105 106 102
13 9 4 10 17 26 49 57 62 70 70 71 77 80 88 91 99 96 95 97 96 107 107 100 98 92 93 83 83 66 56 59 60 51 54 50 58 70 76 86 93 96 99 100
4 3 13 36 9 48 49 52 60 62 65 69 74 82 88 91 97 96 94 95 95 108 104 103 93 88 88 76 68 64 56 52 57 62 59 52 61 71 78 83 89 93 97 100
6 15 29 9 46 47 52 50 54 57 63 68 73 81 82 89 93 92 92 93 89 98 96 96 89 83 75 71 68 59 51 49 58 69 83 77 75 77 83 85 90 93 89 89
8 9 14 41 50 50 53 53 53 55 65 68 72 80 80 86 89 86 94 93 94 98 89 88 84 75 69 69 62 58 50 49 53 68 76 79 80 84 80 78 79 80 80 81
8 21 31 43 38 45 43 48 50 54 60 70 77 77 80 84 84 82 91 89 94 93 90 79 76 68 63 66 61 56 47 40 47 58 64 70 73 78 85 81 80 78 76 74
11 28 32 26 45 35 38 42 47 53 61 68 73 78 79 79 79 87 87 88 89 89 77 71 67 56 56 55 56 52 44 38 48 54 59 64 67 72 75 77 78 74 68 68
16 22 27 36 24 30 36 41 50 58 67 74 74 77 79 78 76 86 80 80 81 83 70 67 61 51 49 46 46 46 42 34 43 46 52 58 60 66 69 71 71 68 64 65
20 25 28 16 25 32 39 44 53 63 69 74 74 76 75 71 73 86 82 78 80 82 70 64 54 45 39 36 37 36 35 28 33 43 48 55 57 60 63 65 66 66 66 66
25 31 23 20 32 38 41 44 47 56 64 72 70 74 72 70 75 89 85 75 72 72 62 54 46 36 29 25 32 26 25 26 29 39 48 54 52 53 56 61 63 66 66 60
20 17 12 22 30 36 41 44 48 56 60 60 71 72 71 69 76 90 86 79 78 74 62 45 33 26 24 24 23 19 21 26 29 35 45 49 47 48 51 55 58 61 62 63
6 8 11 17 22 28 34 41 45 49 55 60 68 71 68 64 68 82 82 79 79 78 70 44 31 22 20 25 17 16 18 23 31 34 41 47 44 45 48 51 54 56 58 62
5 10 13 16 20 26 33 35 39 44 53 59 64 68 71 66 66 78 78 73 69 66 57 36 26 17 16 21 15 14 17 23 30 33 40 43 43 44 46 47 51 54 55 58
6 11 15 17 22 26 29 35 40 46 52 56 62 66 68 64 60 77 80 79 73 66 51 27 21 16 18 14 13 13 18 27 31 34 39 41 42 41 45 45 50 51 52 53
8 12 17 20 24 25 28 32 37 42 50 55 59 63 66 65 63 81 75 69 69 60 46 28 21 20 11 12 12 14 22 31 33 34 37 39 39 39 43 43 48 49 49 50
11 14 19 22 24 25 26 30 36 43 50 54 58 61 63 60 58 74 85 77 65 53 38 25 15 10 9 11 15 18 24 32 35 33 36 37 38 36 40 42 44 47 47 48
13 14 17 20 22 22 24 28 32 38 43 46 50 55 60 65 55 63 74 70 60 48 35 24 13 8 10 16 20 23 30 36 35 33 34 37 37 36 37 40 41 44 45 44
14 15 16 18 19 20 22 26 30 35 40 44 48 53 54 51 53 57 72 70 60 49 41 31 21 15 22 23 26 30 37 38 32 29 31 35 36 36 36 36 38 41 43 41
15 15 14 17 18 19 21 24 29 34 39 44 48 52 52 52 51 48 65 69 61 51 44 37 30 24 34 40 39 41 37 34 29 26 28 34 35 36 36 36 36 38 40 40
14 15 15 15 16 16 19 20 24 28 35 40 45 48 49 50 52 48 55 69 66 57 47 39 31 28 32 37 37 35 33 31 29 25 28 33 36 35 34 34 36 36 37 37
Wind_Direction_500mb
102 112 350 52 66 350 105 249 155 296 299 303 321 316 315 313 316 317 322 324 325 324 324 322 323 321 321 317 316 315 311 311 318 319 315 314 311 311 310 307 299 294 289 285
175 5 323 98 27 329 260 315 298 289 298 311 318 320 321 320 320 321 324 326 326 326 326 326 324 322 320 324 325 326 321 320 318 319 318 315 320 315 309 301 294 288 283 281
309 0 105 333 342 301 291 286 276 291 298 324 323 323 323 318 313 321 323 324 326 327 327 326 325 325 326 327 329 328 325 325 328 328 326 327 323 318 314 310 305 295 287 284
223 26 356 265 231 291 279 306 282 303 322 317 312 312 313 321 323 325 327 328 328 328 325 326 329 332 334 337 338 339 340 341 340 337 333 330 327 334 344 337 327 310 289 270
91 187 303 355 332 315 324 310 160 336 326 321 321 321 319 331 330 328 329 329 329 327 327 328 335 340 342 346 349 350 349 345 340 338 338 350 356 5 31 24 12 23 92 120
41 78 241 177 290 327 320 280 340 333 319 320 329 333 322 328 328 329 332 333 333 332 331 336 343 347 348 353 357 353 349 348 355 356 8 9 32 57 66 54 55 80 92 100
149 241 287 263 334 347 53 263 325 321 317 320 319 310 313 323 328 335 336 336 337 336 337 340 349 352 358 358 353 356 356 5 18 25 41 46 57 70 71 71 79 82 86 92
87 46 326 347 354 103 282 309 315 321 321 319 322 322 326 331 332 337 336 339 339 338 344 351 357 360 2 1 0 7 12 20 35 53 39 50 74 74 73 78 82 82 83 82
173 223 242 316 336 332 333 324 327 328 333 335 330 328 331 333 338 338 339 338 340 341 347 357 1 5 3 7 9 16 24 32 45 49 43 63 67 72 74 79 80 81 82 82
43 324 325 317 292 327 328 327 332 334 336 337 334 336 336 341 343 340 340 341 341 346 349 355 2 7 12 11 17 15 24 28 40 47 51 71 82 87 88 90 92 93 96 98
273 301 321 198 328 329 331 332 335 335 337 336 340 340 341 344 345 342 340 344 343 346 351 356 2 8 14 15 16 16 26 31 53 64 68 72 74 83 89 93 97 100 99 101
231 306 283 302 324 327 330 332 337 339 338 341 345 342 346 347 348 344 345 346 344 350 356 358 2 10 15 17 21 15 28 44 62 74 78 81 82 80 82 90 94 95 96 97
281 306 306 314 319 327 327 333 340 341 341 345 345 346 349 348 352 350 352 349 347 351 355 0 3 10 19 18 21 16 34 54 75 83 88 90 90 90 88 86 91 92 93 95
270 318 323 330 323 336 333 340 341 340 343 346 347 350 351 352 355 357 353 351 347 353 357 4 7 12 20 20 20 20 43 64 81 88 91 92 94 96 96 94 90 85 86 92
317 322 319 321 325 333 341 344 343 343 345 346 349 351 353 355 356 357 354 354 352 356 3 5 7 23 20 26 16 26 46 70 91 92 94 96 98 99 97 96 94 95 99 101
328 327 335 329 338 346 346 344 343 342 343 344 347 352 354 357 357 358 1 358 354 355 3 4 4 9 11 27 20 30 46 68 96 94 97 98 98 97 98 97 98 98 96 96
327 339 350 355 350 348 343 344 343 341 342 343 345 351 357 358 358 360 2 0 358 359 6 5 4 15 23 33 23 37 48 72 96 99 101 101 103 104 103 102 101 101 100 102
328 333 338 340 340 337 342 344 348 348 348 349 348 353 358 0 358 359 1 4 2 3 10 11 12 23 34 36 34 46 62 83 111 106 107 106 106 104 102 102 103 105 109 111
5 355 350 346 341 339 341 347 355 357 354 355 354 355 357 2 359 0 1 7 2 1 360 9 16 33 43 31 40 60 79 100 125 114 115 110 110 107 106 107 108 110 113 113
324 337 343 349 351 345 348 350 350 354 356 356 358 357 359 2 2 4 6 5 4 359 354 8 21 45 44 29 48 71 94 114 130 121 121 118 116 115 114 113 113 113 117 116
309 335 340 339 347 348 346 348 353 353 355 358 359 359 358 1 2 9 8 5 4 2 0 15 34 56 29 29 60 83 111 129 139 129 127 125 122 122 120 119 119 119 120 118
308 322 336 339 341 344 344 353 353 356 355 358 1 359 0 3 4 11 13 6 4 3 2 20 34 39 31 55 89 102 119 132 141 132 133 130 126 128 126 126 124 123 123 122
303 322 335 336 339 346 350 350 356 359 357 359 2 1 0 8 9 5 6 9 9 7 7 26 37 47 69 97 110 119 127 137 142 136 137 134 130 131 130 130 130 129 128 126
312 308 321 336 341 341 345 356 355 359 357 359 5 5 3 4 14 13 10 10 13 17 24 31 43 76 107 117 117 124 130 134 138 139 140 139 136 136 135 135 136 134 132 130
299 302 311 327 334 340 344 348 350 354 358 0 6 7 8 12 11 12 13 13 17 25 39 50 56 80 104 111 117 126 130 132 133 138 141 142 140 139 138 138 139 138 137 134
287 301 300 316 328 336 339 341 347 351 356 2 7 7 7 12 16 19 19 17 23 31 43 51 60 80 103 100 108 116 122 125 127 136 141 145 145 143 143 143 143 144 141 139
271 293 293 300 314 328 325 331 343 350 359 2 7 7 7 14 17 24 26 19 26 34 44 54 65 81 94 98 105 114 124 128 129 138 144 148 148 147 146 147 147 149 147 146
Wind_Speed_850mb
0 3 6 5 9 11 3 9 6 24 38 38 34 56 76 87 92 91 92 95 100 103 106 107 103 103 99 100 96 95 94 94 88 82 84 77 74 69 70 66 63 63 60 61
0 6 4 7 9 12 8 8 15 28 37 21 69 71 73 87 90 89 97 108 112 110 107 105 107 105 105 112 107 97 96 93 89 81 78 77 68 64 62 60 58 56 58 56
3 10 7 5 2 6 17 12 17 16 14 57 70 77 80 89 85 84 102 106 106 107 107 107 109 109 111 110 102 98 92 81 69 69 68 68 63 66 66 63 59 52 51 48
2 7 5 6 10 8 18 26 15 10 37 57 66 77 85 73 76 95 99 103 104 106 110 106 122 113 110 97 91 84 79 80 77 69 66 65 65 57 54 46 47 42 38 36
6 3 9 4 8 10 14 37 6 28 66 69 76 78 58 77 99 98 101 101 102 107 102 115 118 114 102 88 85 86 86 78 70 63 61 54 68 55 42 42 52 40 26 27
7 3 6 7 11 36 15 8 11 60 61 70 81 29 51 108 104 101 102 99 105 107 105 113 117 109 94 86 90 86 81 74 70 62 51 54 43 48 47 69 78 104 98 90
2 6 12 8 22 23 11 14 68 64 67 69 44 57 88 96 101 102 99 101 104 101 109 109 111 104 86 83 83 80 76 69 61 56 47 42 39 51 68 81 96 106 106 92
5 5 7 11 7 6 17 54 53 61 72 70 77 84 86 94 99 100 99 104 103 101 114 107 104 95 89 84 84 80 64 58 55 54 51 44 53 68 74 83 97 105 106 102
13 9 4 10 17 26 49 57 62 70 70 71 77 80 88 91 99 96 95 97 96 107 107 100 98 92 93 83 83 66 56 59 60 51 54 50 58 70 76 86 93 96 99 100
4 3 13 36 9 48 49 52 60 62 65 69 74 82 88 91 97 96 94 95 95 108 104 103 93 88 88 76 68 64 56 52 57 62 59 52 61 71 78 83 89 93 97 100
6 15 29 9 46 47 52 50 54 57 63 68 73 81 82 89 93 92 92 93 89 98 96 96 89 83 75 71 68 59 51 49 58 69 83 77 75 77 83 85 90 93 89 89
8 9 14 41 50 50 53 53 53 55 65 68 72 80 80 86 89 86 94 93 94 98 89 88 84 75 69 69 62 58 50 49 53 68 76 79 80 84 80 78 79 80 80 81
8 21 31 43 38 45 43 48 50 54 60 70 77 77 80 84 84 82 91 89 94 93 90 79 76 68 63 66 61 56 47 40 47 58 64 70 73 78 85 81 80 78 76 74
11 28 32 26 45 35 38 42 47 53 61 68 73 78 79 79 79 87 87 88 89 89 77 71 67 56 56 55 56 52 44 38 48 54 59 64 67 72 75 77 78 74 68 68
16 22 27 36 24 30 36 41 50 58 67 74 74 77 79 78 76 86 80 80 81 83 70 67 61 51 49 46 46 46 42 34 43 46 52 58 60 66 69 71 71 68 64 65
20 25 28 16 25 32 39 44 53 63 69 74 74 76 75 71 73 86 82 78 80 82 70 64 54 45 39 36 37 36 35 28 33 43 48 55 57 60 63 65 66 66 66 66
25 31 23 20 32 38 41 44 47 56 64 72 70 74 72 70 75 89 85 75 72 72 62 54 46 36 29 25 32 26 25 26 29 39 48 54 52 53 56 61 63 66 66 60
20 17 12 22 30 36 41 44 48 56 60 60 71 72 71 69 76 90 86 79 78 74 62 45 33 26 24 24 23 19 21 26 29 35 45 49 47 48 51 55 58 61 62 63
6 8 11 17 22 28 34 41 45 49 55 60 68 71 68 64 68 82 82 79 79 78 70 44 31 22 20 25 17 16 18 23 31 34 41 47 44 45 48 51 54 56 58 62
5 10 13 16 20 26 33 35 39 44 53 59 64 68 71 66 66 78 78 73 69 66 57 36 26 17 16 21 15 14 17 23 30 33 40 43 43 44 46 47 51 54 55 58
6 11 15 17 22 26 29 35 40 46 52 56 62 66 68 64 60 77 80 79 73 66 51 27 21 16 18 14 13 13 18 27 31 34 39 41 42 41 45 45 50 51 52 53
8 12 17 20 24 25 28 32 37 42 50 55 59 63 66 65 63 81 75 69 69 60 46 28 21 20 11 12 12 14 22 31 33 34 37 39 39 39 43 43 48 49 49 50
11 14 19 22 24 25 26 30 36 43 50 54 58 61 63 60 58 74 85 77 65 53 38 25 15 10 9 11 15 18 24 32 35 33 36 37 38 36 40 42 44 47 47 48
13 14 17 20 22 22 24 28 32 38 43 46 50 55 60 65 55 63 74 70 60 48 35 24 13 8 10 16 20 23 30 36 35 33 34 37 37 36 37 40 41 44 45 44
14 15 16 18 19 20 22 26 30 35 40 44 48 53 54 51 53 57 72 70 60 49 41 31 21 15 22 23 26 30 37 38 32 29 31 35 36 36 36 36 38 41 43 41
15 15 14 17 18 19 21 24 29 34 39 44 48 52 52 52 51 48 65 69 61 51 44 37 30 24 34 40 39 41 37 34 29 26 28 34 35 36 36 36 36 38 40 40
14 15 15 15 16 16 19 20 24 28 35 40 45 48 49 50 52 48 55 69 66 57 47 39 31 28 32 37 37 35 33 31 29 25 28 33 36 35 34 34 36 36 37 37
Wind_Direction_850mb
102 112 350 52 66 350 105 249 155 296 299 303 321 316 315 313 316 317 322 324 325 324 324 322 323 321 321 317 316 315 311 311 318 319 315 314 311 311 310 307 299 294 289 285
175 5 323 98 27 329 260 315 298 289 298 311 318 320 321 320 320 321 324 326 326 326 326 326 324 322 320 324 325 326 321 320 318 319 318 315 320 315 309 301 294 288 283 281
309 0 105 333 342 301 291 286 276 291 298 324 323 323 323 318 313 321 323 324 326 327 327 326 325 325 326 327 329 328 325 325 328 328 326 327 323 318 314 310 305 295 287 284
223 26 356 265 231 291 279 306 282 303 322 317 312 312 313 321 323 325 327 328 328 328 325 326 329 332 334 337 338 339 340 341 340 337 333 330 327 334 344 337 327 310 289 270
91 187 303 355 332 315 324 310 160 336 326 321 321 321 319 331 330 328 329 329 329 327 327 328 335 340 342 346 349 350 349 345 340 338 338 350 356 5 31 24 12 23 92 120
41 78 241 177 290 327 320 280 340 333 319 320 329 333 322 328 328 329 332 333 333 332 331 336 343 347 348 353 357 353 349 348 355 356 8 9 32 57 66 54 55 80 92 100
149 241 287 263 334 347 53 263 325 321 317 320 319 310 313 323 328 335 336 336 337 336 337 340 349 352 358 358 353 356 356 5 18 25 41 46 57 70 71 71 79 82 86 92
87 46 326 347 354 103 282 309 315 321 321 319 322 322 326 331 332 337 336 339 339 338 344 351 357 360 2 1 0 7 12 20 35 53 39 50 74 74 73 78 82 82 83 82
173 223 242 316 336 332 333 324 327 328 333 335 330 328 331 333 338 338 339 338 340 341 347 357 1 5 3 7 9 16 24 32 45 49 43 63 67 72 74 79 80 81 82 82
43 324 325 317 292 327 328 327 332 334 336 337 334 336 336 341 343 340 340 341 341 346 349 355 2 7 12 11 17 15 24 28 40 47 51 71 82 87 88 90 92 93 96 98
273 301 321 198 328 329 331 332 335 335 337 336 340 340 341 344 345 342 340 344 343 346 351 356 2 8 14 15 16 16 26 31 53 64 68 72 74 83 89 93 97 100 99 101
231 306 283 302 324 327 330 332 337 339 338 341 345 342 346 347 348 344 345 346 344 350 356 358 2 10 15 17 21 15 28 44 62 74 78 81 82 80 82 90 94 95 96 97
281 306 306 314 319 327 327 333 340 341 341 345 345 346 349 348 352 350 352 349 347 351 355 0 3 10 19 18 21 16 34 54 75 83 88 90 90 90 88 86 91 92 93 95
270 318 323 330 323 336 333 340 341 340 343 346 347 350 351 352 355 357 353 351 347 353 357 4 7 12 20 20 20 20 43 64 81 88 91 92 94 96 96 94 90 85 86 92
317 322 319 321 325 333 341 344 343 343 345 346 349 351 353 355 356 357 354 354 352 356 3 5 7 23 20 26 16 26 46 70 91 92 94 96 98 99 97 96 94 95 99 101
328 327 335 329 338 346 346 344 343 342 343 344 347 352 354 357 357 358 1 358 354 355 3 4 4 9 11 27 20 30 46 68 96 94 97 98 98 97 98 97 98 98 96 96
327 339 350 355 350 348 343 344 343 341 342 343 345 351 357 358 358 360 2 0 358 359 6 5 4 15 23 33 23 37 48 72 96 99 101 101 103 104 103 102 101 101 100 102
328 333 338 340 340 337 342 344 348 348 348 349 348 353 358 0 358 359 1 4 2 3 10 11 12 23 34 36 34 46 62 83 111 106 107 106 106 104 102 102 103 105 109 111
5 355 350 346 341 339 341 347 355 357 354 355 354 355 357 2 359 0 1 7 2 1 360 9 16 33 43 31 40 60 79 100 125 114 115 110 110 107 106 107 108 110 113 113
324 337 343 349 351 345 348 350 350 354 356 356 358 357 359 2 2 4 6 5 4 359 354 8 21 45 44 29 48 71 94 114 130 121 121 118 116 115 114 113 113 113 117 116
309 335 340 339 347 348 346 348 353 353 355 358 359 359 358 1 2 9 8 5 4 2 0 15 34 56 29 29 60 83 111 129 139 129 127 125 122 122 120 119 119 119 120 118
308 322 336 339 341 344 344 353 353 356 355 358 1 359 0 3 4 11 13 6 4 3 2 20 34 39 31 55 89 102 119 132 141 132 133 130 126 128 126 126 124 123 123 122
303 322 335 336 339 346 350 350 356 359 357 359 2 1 0 8 9 5 6 9 9 7 7 26 37 47 69 97 110 119 127 137 142 136 137 134 130 131 130 130 130 129 128 126
312 308 321 336 341 341 345 356 355 359 357 359 5 5 3 4 14 13 10 10 13 17 24 31 43 76 107 117 117 124 130 134 138 139 140 139 136 136 135 135 136 134 132 130
299 302 311 327 334 340 344 348 350 354 358 0 6 7 8 12 11 12 13 13 17 25 39 50 56 80 104 111 117 126 130 132 133 138 141 142 140 139 138 138 139 138 137 134
287 301 300 316 328 336 339 341 347 351 356 2 7 7 7 12 16 19 19 17 23 31 43 51 60 80 103 100 108 116 122 125 127 136 141 145 145 143 143 143 143 144 141 139
271 293 293 300 314 328 325 331 343 350 359 2 7 7 7 14 17 24 26 19 26 34 44 54 65 81 94 98 105 114 124 128 129 138 144 148 148 147 146 147 147 149 147 146